map of NST home
Great Circle Mapper logo
NST - Airport
Location
City:  Nakhon Si Thammarat, Thailand
ICAO / IATA:VTSF / NST

Details
Type:Airport (Aerodrome, Airfield)
Use:Public/Civil
Latitude:832'23"N (8.539617)
Longitude:9956'41"E (99.944725)
Datum:WGS 1984
Elevation:13 ft (4 m)
Runways:1
Longest:6890 × 148 ft (2100 × 45 m), paved

Time
Time Zone:UTC+7
Local Time:

Weather
METAR:VTSF 310800Z 03007KT 350V080 9999 FEW017CB BKN300 32/26 Q1006 A2972 INFO I/ RWY01

Related Locations
Nearby:
Farthest:TRU: 12372 mi / 19911 km
Trujillo [Capitan Carlos Martinez de Pinillos], PE

Find:

   beyond  
but within

Other Information
Maps:
NOTAMs:
Links:
Sources:

  
flag of Thailand   

Sectional Chart

Flight Planning
at skyvector.com

Satellite Image

Google Maps Satellite View

 

Copyright © 2004-2014 Karl L. Swartz. All rights reserved.
The Great Circle Mapper name and logo are trademarks of the Great Circle Mapper.
All other trademarks mentioned herein belong to their respective owners.
Please see credits for attibutions and further copyright information.

  Follow gcmap on Facebook Follow gcmap on Twitter

hCard Microformat

Geo Microformat